Time,TemperatureF,DewpointF,PressureIn,WindDirection,WindDirectionDegrees,WindSpeedMPH,WindSpeedGustMPH,Humidity,HourlyPrecipIn,Conditions,Clouds,dailyrainin,SolarRadiationWatts/m^2,SoftwareType,DateUTC
2013-10-24 19:43:00,37.9,34.1,30.21,WNW,293,0.0,0.0,86,0.00,,,0.00,0.00,VWS V14.01,2013-10-24 23:43:00,
2013-10-24 19:44:00,37.9,34.1,30.21,WNW,293,0.0,0.0,86,0.00,,,0.00,0.00,VWS V14.01,2013-10-24 23:44:00,
2013-10-24 19:45:00,37.9,34.1,30.21,WNW,293,0.0,0.0,86,0.00,,,0.00,0.00,VWS V14.01,2013-10-24 23:45:00,
2013-10-24 19:46:00,37.9,34.1,30.21,WNW,293,0.0,0.0,86,0.00,,,0.00,0.00,VWS V14.01,2013-10-24 23:46:00,
2013-10-24 19:47:00,37.9,34.4,30.21,WNW,293,0.0,0.0,87,0.00,,,0.00,0.00,VWS V14.01,2013-10-24 23:47:00,
2013-10-24 19:48:00,37.8,34.3,30.21,SSE,152,2.0,4.0,87,0.00,,,0.00,0.00,VWS V14.01,2013-10-24 23:48:00,
2013-10-24 19:49:00,37.8,34.3,30.21,WNW,293,0.0,0.0,87,0.00,,,0.00,0.00,VWS V14.01,2013-10-24 23:49:00,
2013-10-24 19:50:00,37.7,34.2,30.21,SSE,152,1.0,4.0,87,0.00,,,0.00,0.00,VWS V14.01,2013-10-24 23:50:00,
2013-10-24 19:51:00,37.7,34.2,30.21,SSE,152,0.0,2.0,87,0.00,,,0.00,0.00,VWS V14.01,2013-10-24 23:51:00,
2013-10-24 19:52:00,37.7,34.2,30.21,WSW,238,5.0,5.0,87,0.00,,,0.00,0.00,VWS V14.01,2013-10-24 23:52:00,
2013-10-24 19:53:00,37.7,33.9,30.21,SSW,204,0.0,1.0,86,0.00,,,0.00,0.00,VWS V14.01,2013-10-24 23:53:00,
2013-10-24 19:54:00,37.7,34.2,30.21,SSW,204,1.0,2.0,87,0.00,,,0.00,0.00,VWS V14.01,2013-10-24 23:54:00,
2013-10-24 19:55:00,37.7,33.9,30.21,SSW,204,0.0,1.0,86,0.00,,,0.00,0.00,VWS V14.01,2013-10-24 23:55:00,
2013-10-24 19:56:00,37.7,33.9,30.21,SSW,204,0.0,3.0,86,0.00,,,0.00,0.00,VWS V14.01,2013-10-24 23:56:00,
2013-10-24 19:57:00,37.8,34.0,30.21,SSW,204,2.0,2.0,86,0.00,,,0.00,0.00,VWS V14.01,2013-10-24 23:57:00,
2013-10-24 19:58:00,37.9,33.8,30.21,West,265,3.0,3.0,85,0.00,,,0.00,0.00,VWS V14.01,2013-10-24 23:58:00,
2013-10-24 19:59:00,37.9,33.8,30.21,West,265,0.0,4.0,85,0.00,,,0.00,0.00,VWS V14.01,2013-10-24 23:59:00,
2013-10-24 20:00:00,37.9,33.8,30.21,West,265,3.0,4.0,85,0.00,,,0.00,0.00,VWS V14.01,2013-10-25 00:00:00,
2013-10-24 20:01:00,37.9,33.8,30.21,West,265,1.0,3.0,85,0.00,,,0.00,0.00,VWS V14.01,2013-10-25 00:01:00,
2013-10-24 20:02:00,37.9,33.8,30.21,West,265,3.0,4.0,85,0.00,,,0.00,0.00,VWS V14.01,2013-10-25 00:02:00,
2013-10-24 20:03:00,38.1,33.7,30.21,West,265,1.0,3.0,84,0.00,,,0.00,0.00,VWS V14.01,2013-10-25 00:03:00,
2013-10-24 20:04:00,38.0,33.6,30.21,West,265,2.0,3.0,84,0.00,,,0.00,0.00,VWS V14.01,2013-10-25 00:04:00,
2013-10-24 20:05:00,38.1,33.7,30.21,West,265,0.0,3.0,84,0.00,,,0.00,0.00,VWS V14.01,2013-10-25 00:05:00,
2013-10-24 20:06:00,38.1,33.7,30.21,West,265,0.0,1.0,84,0.00,,,0.00,0.00,VWS V14.01,2013-10-25 00:06:00,
2013-10-24 20:07:00,38.2,33.8,30.21,West,265,0.0,0.0,84,0.00,,,0.00,0.00,VWS V14.01,2013-10-25 00:07:00,
2013-10-24 20:08:00,38.3,33.9,30.21,West,265,0.0,2.0,84,0.00,,,0.00,0.00,VWS V14.01,2013-10-25 00:08:00,
2013-10-24 20:09:00,38.3,33.9,30.21,West,265,2.0,4.0,84,0.00,,,0.00,0.00,VWS V14.01,2013-10-25 00:09:00,
2013-10-24 20:10:00,38.3,33.9,30.21,West,265,0.0,2.0,84,0.00,,,0.00,0.00,VWS V14.01,2013-10-25 00:10:00,
2013-10-24 20:11:00,38.4,34.0,30.21,West,265,2.0,3.0,84,0.00,,,0.00,0.00,VWS V14.01,2013-10-25 00:11:00,
2013-10-24 20:12:00,38.4,34.0,30.21,West,265,0.0,2.0,84,0.00,,,0.00,0.00,VWS V14.01,2013-10-25 00:12:00,
2013-10-24 20:13:00,38.4,34.0,30.22,West,265,1.0,1.0,84,0.00,,,0.00,0.00,VWS V14.01,2013-10-25 00:13:00,
2013-10-24 20:14:00,38.4,34.0,30.22,West,270,1.0,2.0,84,0.00,,,0.00,0.00,VWS V14.01,2013-10-25 00:14:00,
2013-10-24 20:15:00,38.4,34.0,30.22,West,270,1.0,2.0,84,0.00,,,0.00,0.00,VWS V14.01,2013-10-25 00:15:00,
2013-10-24 20:16:00,38.4,34.0,30.22,West,270,2.0,3.0,84,0.00,,,0.00,0.00,VWS V14.01,2013-10-25 00:16:00,
2013-10-24 20:17:00,38.4,34.0,30.22,NW,315,3.0,4.0,84,0.00,,,0.00,0.00,VWS V14.01,2013-10-25 00:17:00,
2013-10-24 20:18:00,38.4,33.7,30.22,NW,315,3.0,4.0,83,0.00,,,0.00,0.00,VWS V14.01,2013-10-25 00:18:00,
2013-10-24 20:19:00,38.4,33.7,30.22,NW,315,3.0,5.0,83,0.00,,,0.00,0.00,VWS V14.01,2013-10-25 00:19:00,
2013-10-24 20:20:00,38.4,33.7,30.22,NNE,22,3.0,5.0,83,0.00,,,0.00,0.00,VWS V14.01,2013-10-25 00:20:00,
2013-10-24 20:21:00,38.5,33.8,30.22,NNE,22,2.0,3.0,83,0.00,,,0.00,0.00,VWS V14.01,2013-10-25 00:21:00,
2013-10-24 20:22:00,38.5,34.1,30.22,NNE,22,2.0,3.0,84,0.00,,,0.00,0.00,VWS V14.01,2013-10-25 00:22:00,
2013-10-24 20:23:00,38.5,34.1,30.22,NNE,22,1.0,3.0,84,0.00,,,0.00,0.00,VWS V14.01,2013-10-25 00:23:00,
2013-10-24 20:24:00,38.4,34.0,30.22,NNE,22,0.0,0.0,84,0.00,,,0.00,0.00,VWS V14.01,2013-10-25 00:24:00,
2013-10-24 20:25:00,38.4,34.0,30.22,NNE,22,0.0,1.0,84,0.00,,,0.00,0.00,VWS V14.01,2013-10-25 00:25:00,
2013-10-24 20:26:00,38.4,34.0,30.22,NNE,22,1.0,1.0,84,0.00,,,0.00,0.00,VWS V14.01,2013-10-25 00:26:00,
2013-10-24 20:27:00,38.3,33.9,30.22,NNE,22,0.0,1.0,84,0.00,,,0.00,0.00,VWS V14.01,2013-10-25 00:27:00,
2013-10-24 20:28:00,38.2,34.1,30.22,NNE,22,1.0,1.0,85,0.00,,,0.00,0.00,VWS V14.01,2013-10-25 00:28:00,
2013-10-24 20:29:00,38.2,34.1,30.22,NNE,22,0.0,1.0,85,0.00,,,0.00,0.00,VWS V14.01,2013-10-25 00:29:00,
2013-10-24 20:30:00,38.1,34.0,30.22,NNE,22,1.0,2.0,85,0.00,,,0.00,0.00,VWS V14.01,2013-10-25 00:30:00,
2013-10-24 20:31:00,38.0,33.9,30.22,NNE,22,1.0,2.0,85,0.00,,,0.00,0.00,VWS V14.01,2013-10-25 00:31:00,
2013-10-24 20:32:00,38.0,33.9,30.22,NNE,22,2.0,3.0,85,0.00,,,0.00,0.00,VWS V14.01,2013-10-25 00:32:00,
2013-10-24 20:33:00,37.9,33.8,30.22,NNE,22,1.0,3.0,85,0.00,,,0.00,0.00,VWS V14.01,2013-10-25 00:33:00,
2013-10-24 20:34:00,37.9,34.1,30.22,NNE,22,2.0,3.0,86,0.00,,,0.00,0.00,VWS V14.01,2013-10-25 00:34:00,
2013-10-24 20:35:00,37.9,34.1,30.22,NNW,338,4.0,4.0,86,0.00,,,0.00,0.00,VWS V14.01,2013-10-25 00:35:00,
2013-10-24 20:36:00,37.9,34.1,30.22,NW,315,4.0,6.0,86,0.00,,,0.00,0.00,VWS V14.01,2013-10-25 00:36:00,
2013-10-24 20:37:00,37.8,34.0,30.22,NW,315,2.0,4.0,86,0.00,,,0.00,0.00,VWS V14.01,2013-10-25 00:37:00,
2013-10-24 20:38:00,37.9,34.1,30.22,NNW,338,3.0,5.0,86,0.00,,,0.00,0.00,VWS V14.01,2013-10-25 00:38:00,
2013-10-24 20:39:00,37.9,34.1,30.23,NNW,338,2.0,3.0,86,0.00,,,0.00,0.00,VWS V14.01,2013-10-25 00:39:00,
2013-10-24 20:40:00,37.8,34.0,30.23,NNW,338,3.0,4.0,86,0.00,,,0.00,0.00,VWS V14.01,2013-10-25 00:40:00,
2013-10-24 20:41:00,37.8,34.0,30.23,NNW,338,2.0,3.0,86,0.00,,,0.00,0.00,VWS V14.01,2013-10-25 00:41:00,
2013-10-24 20:42:00,37.8,34.0,30.23,NNW,338,1.0,3.0,86,0.00,,,0.00,0.00,VWS V14.01,2013-10-25 00:42:00,
2013-10-24 20:43:00,37.8,34.3,30.23,NNE,22,3.0,5.0,87,0.00,,,0.00,0.00,VWS V14.01,2013-10-25 00:43:00,
2013-10-24 20:44:00,37.7,34.2,30.23,NNE,22,1.0,3.0,87,0.00,,,0.00,0.00,VWS V14.01,2013-10-25 00:44:00,
2013-10-24 20:45:00,37.7,34.2,30.23,NNE,22,0.0,1.0,87,0.00,,,0.00,0.00,VWS V14.01,2013-10-25 00:45:00,
2013-10-24 20:46:00,37.6,34.1,30.23,NNE,22,0.0,0.0,87,0.00,,,0.00,0.00,VWS V14.01,2013-10-25 00:46:00,
2013-10-24 20:47:00,37.5,34.0,30.23,NNE,22,2.0,3.0,87,0.00,,,0.00,0.00,VWS V14.01,2013-10-25 00:47:00,
2013-10-24 20:48:00,37.4,33.9,30.23,NNE,22,2.0,3.0,87,0.00,,,0.00,0.00,VWS V14.01,2013-10-25 00:48:00,
2013-10-24 20:49:00,37.4,34.2,30.23,NNE,22,1.0,2.0,88,0.00,,,0.00,0.00,VWS V14.01,2013-10-25 00:49:00,
2013-10-24 20:50:00,37.3,34.1,30.23,NNE,22,1.0,1.0,88,0.00,,,0.00,0.00,VWS V14.01,2013-10-25 00:50:00,
2013-10-24 20:51:00,37.2,34.0,30.23,NNE,22,1.0,3.0,88,0.00,,,0.00,0.00,VWS V14.01,2013-10-25 00:51:00,
2013-10-24 20:52:00,37.1,33.9,30.23,NNE,22,2.0,2.0,88,0.00,,,0.00,0.00,VWS V14.01,2013-10-25 00:52:00,
2013-10-24 20:53:00,37.1,33.9,30.23,NNE,22,0.0,1.0,88,0.00,,,0.00,0.00,VWS V14.01,2013-10-25 00:53:00,
2013-10-24 20:54:00,37.0,33.8,30.23,NNE,22,0.0,0.0,88,0.00,,,0.00,0.00,VWS V14.01,2013-10-25 00:54:00,
2013-10-24 20:55:00,36.9,33.7,30.23,NNE,22,0.0,0.0,88,0.00,,,0.00,0.00,VWS V14.01,2013-10-25 00:55:00,
2013-10-24 20:56:00,36.8,33.6,30.23,NNE,22,0.0,2.0,88,0.00,,,0.00,0.00,VWS V14.01,2013-10-25 00:56:00,
2013-10-24 20:57:00,36.7,33.8,30.23,NNE,22,1.0,3.0,89,0.00,,,0.00,0.00,VWS V14.01,2013-10-25 00:57:00,
2013-10-24 20:58:00,36.6,33.7,30.23,NNE,22,0.0,0.0,89,0.00,,,0.00,0.00,VWS V14.01,2013-10-25 00:58:00,
2013-10-24 20:59:00,36.5,33.6,30.23,NNE,22,0.0,0.0,89,0.00,,,0.00,0.00,VWS V14.01,2013-10-25 00:59:00,
2013-10-24 21:00:00,36.4,33.5,30.23,NNE,22,0.0,1.0,89,0.00,,,0.00,0.00,VWS V14.01,2013-10-25 01:00:00,
2013-10-24 21:01:00,36.4,33.5,30.23,NNE,22,1.0,2.0,89,0.00,,,0.00,0.00,VWS V14.01,2013-10-25 01:01:00,
2013-10-24 21:02:00,36.3,33.4,30.23,NNE,22,1.0,2.0,89,0.00,,,0.00,0.00,VWS V14.01,2013-10-25 01:02:00,
2013-10-24 21:03:00,36.3,33.7,30.23,NNE,22,0.0,1.0,90,0.00,,,0.00,0.00,VWS V14.01,2013-10-25 01:03:00,
2013-10-24 21:04:00,36.2,33.6,30.23,NNE,22,0.0,0.0,90,0.00,,,0.00,0.00,VWS V14.01,2013-10-25 01:04:00,
2013-10-24 21:05:00,36.2,33.6,30.23,NNE,22,0.0,0.0,90,0.00,,,0.00,0.00,VWS V14.01,2013-10-25 01:05:00,
2013-10-24 21:06:00,36.1,33.5,30.23,NNE,22,0.0,0.0,90,0.00,,,0.00,0.00,VWS V14.01,2013-10-25 01:06:00,
2013-10-24 21:07:00,36.0,33.4,30.23,NNE,22,0.0,0.0,90,0.00,,,0.00,0.00,VWS V14.01,2013-10-25 01:07:00,
2013-10-24 21:08:00,36.0,33.4,30.23,NNE,22,0.0,0.0,90,0.00,,,0.00,0.00,VWS V14.01,2013-10-25 01:08:00,
2013-10-24 21:09:00,35.9,33.3,30.23,NNE,22,0.0,0.0,90,0.00,,,0.00,0.00,VWS V14.01,2013-10-25 01:09:00,
2013-10-24 21:10:00,35.9,33.3,30.24,NNE,22,1.0,2.0,90,0.00,,,0.00,0.00,VWS V14.01,2013-10-25 01:10:00,
2013-10-24 21:11:00,35.9,33.3,30.23,NNE,22,2.0,2.0,90,0.00,,,0.00,0.00,VWS V14.01,2013-10-25 01:11:00,
2013-10-24 21:12:00,35.8,33.2,30.24,NNE,22,1.0,2.0,90,0.00,,,0.00,0.00,VWS V14.01,2013-10-25 01:12:00,
2013-10-24 21:13:00,35.8,33.4,30.24,NNE,22,0.0,1.0,91,0.00,,,0.00,0.00,VWS V14.01,2013-10-25 01:13:00,
2013-10-24 21:14:00,35.7,33.3,30.24,NNE,22,0.0,0.0,91,0.00,,,0.00,0.00,VWS V14.01,2013-10-25 01:14:00,
2013-10-24 21:15:00,35.7,33.3,30.24,NNE,22,0.0,0.0,91,0.00,,,0.00,0.00,VWS V14.01,2013-10-25 01:15:00,
2013-10-24 21:16:00,35.6,33.2,30.24,NNE,22,0.0,1.0,91,0.00,,,0.00,0.00,VWS V14.01,2013-10-25 01:16:00,
2013-10-24 21:17:00,35.6,33.2,30.24,NNE,22,1.0,1.0,91,0.00,,,0.00,0.00,VWS V14.01,2013-10-25 01:17:00,
2013-10-24 21:18:00,35.6,33.2,30.24,NNE,22,0.0,1.0,91,0.00,,,0.00,0.00,VWS V14.01,2013-10-25 01:18:00,
2013-10-24 21:19:00,35.6,33.2,30.24,NNE,22,0.0,2.0,91,0.00,,,0.00,0.00,VWS V14.01,2013-10-25 01:19:00,
2013-10-24 21:20:00,35.6,33.2,30.24,NNE,22,3.0,7.0,91,0.00,,,0.00,0.00,VWS V14.01,2013-10-25 01:20:00,
2013-10-24 21:21:00,35.6,33.2,30.24,NNE,22,6.0,8.0,91,0.00,,,0.00,0.00,VWS V14.01,2013-10-25 01:21:00,
2013-10-24 21:22:00,35.6,33.2,30.24,North,0,3.0,4.0,91,0.00,,,0.00,0.00,VWS V14.01,2013-10-25 01:22:00,
2013-10-24 21:23:00,35.6,33.2,30.24,North,0,2.0,3.0,91,0.00,,,0.00,0.00,VWS V14.01,2013-10-25 01:23:00,
2013-10-24 21:24:00,35.6,33.5,30.24,North,0,1.0,2.0,92,0.00,,,0.00,0.00,VWS V14.01,2013-10-25 01:24:00,
2013-10-24 21:25:00,35.6,33.5,30.24,North,0,1.0,1.0,92,0.00,,,0.00,0.00,VWS V14.01,2013-10-25 01:25:00,
2013-10-24 21:26:00,38.4,34.0,30.22,NNE,22,1.0,1.0,84,0.00,,,0.00,0.00,VWS V14.01,2013-10-25 01:26:00,
2013-10-24 21:27:00,35.7,33.6,30.24,North,0,1.0,2.0,92,0.00,,,0.00,0.00,VWS V14.01,2013-10-25 01:27:00,
2013-10-24 21:28:00,35.6,33.5,30.24,North,0,2.0,3.0,92,0.00,,,0.00,0.00,VWS V14.01,2013-10-25 01:28:00,
2013-10-24 21:29:00,35.6,33.5,30.24,North,0,1.0,2.0,92,0.00,,,0.00,0.00,VWS V14.01,2013-10-25 01:29:00,
2013-10-24 21:30:00,35.6,33.5,30.24,North,0,0.0,1.0,92,0.00,,,0.00,0.00,VWS V14.01,2013-10-25 01:30:00,
2013-10-24 21:31:00,35.6,33.5,30.24,North,0,1.0,1.0,92,0.00,,,0.00,0.00,VWS V14.01,2013-10-25 01:31:00,
2013-10-24 21:32:00,35.6,33.5,30.24,North,0,0.0,2.0,92,0.00,,,0.00,0.00,VWS V14.01,2013-10-25 01:32:00,
2013-10-24 21:33:00,35.6,33.5,30.24,North,0,0.0,1.0,92,0.00,,,0.00,0.00,VWS V14.01,2013-10-25 01:33:00,
2013-10-24 21:34:00,35.5,33.4,30.24,North,0,0.0,1.0,92,0.00,,,0.00,0.00,VWS V14.01,2013-10-25 01:34:00,
2013-10-24 21:35:00,35.5,33.4,30.24,North,0,0.0,1.0,92,0.00,,,0.00,0.00,VWS V14.01,2013-10-25 01:35:00,
2013-10-24 21:36:00,35.5,33.4,30.24,North,0,1.0,2.0,92,0.00,,,0.00,0.00,VWS V14.01,2013-10-25 01:36:00,
2013-10-24 21:37:00,35.5,33.4,30.24,North,0,0.0,1.0,92,0.00,,,0.00,0.00,VWS V14.01,2013-10-25 01:37:00,
2013-10-24 21:38:00,35.5,33.4,30.24,North,0,0.0,0.0,92,0.00,,,0.00,0.00,VWS V14.01,2013-10-25 01:38:00,
2013-10-24 21:39:00,35.5,33.4,30.24,North,0,0.0,0.0,92,0.00,,,0.00,0.00,VWS V14.01,2013-10-25 01:39:00,
2013-10-24 21:40:00,35.5,33.4,30.24,North,0,0.0,0.0,92,0.00,,,0.00,0.00,VWS V14.01,2013-10-25 01:40:00,
2013-10-24 21:41:00,35.5,33.4,30.24,North,0,0.0,0.0,92,0.00,,,0.00,0.00,VWS V14.01,2013-10-25 01:41:00,
2013-10-24 21:42:00,35.4,33.3,30.24,North,0,0.0,0.0,92,0.00,,,0.00,0.00,VWS V14.01,2013-10-25 01:42:00,
2013-10-24 21:43:00,35.4,33.3,30.24,North,0,0.0,0.0,92,0.00,,,0.00,0.00,VWS V14.01,2013-10-25 01:43:00,
2013-10-24 21:44:00,35.4,33.3,30.24,North,0,0.0,2.0,92,0.00,,,0.00,0.00,VWS V14.01,2013-10-25 01:44:00,
2013-10-24 21:45:00,35.4,33.3,30.24,North,0,1.0,2.0,92,0.00,,,0.00,0.00,VWS V14.01,2013-10-25 01:45:00,
2013-10-24 21:46:00,35.4,33.3,30.24,North,0,0.0,1.0,92,0.00,,,0.00,0.00,VWS V14.01,2013-10-25 01:46:00,
2013-10-24 21:47:00,35.4,33.3,30.24,North,0,0.0,1.0,92,0.00,,,0.00,0.00,VWS V14.01,2013-10-25 01:47:00,
2013-10-24 21:48:00,35.3,33.2,30.24,North,0,0.0,1.0,92,0.00,,,0.00,0.00,VWS V14.01,2013-10-25 01:48:00,
2013-10-24 21:49:00,35.3,33.2,30.25,North,0,0.0,0.0,92,0.00,,,0.00,0.00,VWS V14.01,2013-10-25 01:49:00,
2013-10-24 21:50:00,35.3,33.2,30.24,North,0,0.0,1.0,92,0.00,,,0.00,0.00,VWS V14.01,2013-10-25 01:50:00,
2013-10-24 21:51:00,35.3,33.2,30.24,North,0,2.0,3.0,92,0.00,,,0.00,0.00,VWS V14.01,2013-10-25 01:51:00,
2013-10-24 21:52:00,35.3,33.2,30.24,North,0,1.0,3.0,92,0.00,,,0.00,0.00,VWS V14.01,2013-10-25 01:52:00,
2013-10-24 21:53:00,35.3,33.2,30.24,North,0,1.0,2.0,92,0.00,,,0.00,0.00,VWS V14.01,2013-10-25 01:53:00,
2013-10-24 21:54:00,35.3,33.2,30.24,North,0,1.0,2.0,92,0.00,,,0.00,0.00,VWS V14.01,2013-10-25 01:54:00,
2013-10-24 21:55:00,35.3,33.2,30.25,North,0,0.0,2.0,92,0.00,,,0.00,0.00,VWS V14.01,2013-10-25 01:55:00,
2013-10-24 21:56:00,35.3,33.2,30.25,North,0,3.0,3.0,92,0.00,,,0.00,0.00,VWS V14.01,2013-10-25 01:56:00,
2013-10-24 21:57:00,35.3,33.2,30.25,North,0,3.0,4.0,92,0.00,,,0.00,0.00,VWS V14.01,2013-10-25 01:57:00,
2013-10-24 21:58:00,35.3,33.5,30.25,West,270,1.0,3.0,93,0.00,,,0.00,0.00,VWS V14.01,2013-10-25 01:58:00,
2013-10-24 21:59:00,35.3,33.5,30.25,West,270,0.0,1.0,93,0.00,,,0.00,0.00,VWS V14.01,2013-10-25 01:59:00,
2013-10-24 22:00:00,35.3,33.5,30.25,West,270,1.0,2.0,93,0.00,,,0.00,0.00,VWS V14.01,2013-10-25 02:00:00,
2013-10-24 22:01:00,35.3,33.5,30.25,West,270,1.0,2.0,93,0.00,,,0.00,0.00,VWS V14.01,2013-10-25 02:01:00,
2013-10-24 22:02:00,35.3,33.5,30.25,West,270,2.0,3.0,93,0.00,,,0.00,0.00,VWS V14.01,2013-10-25 02:02:00,
2013-10-24 22:03:00,35.3,33.5,30.25,North,0,2.0,3.0,93,0.00,,,0.00,0.00,VWS V14.01,2013-10-25 02:03:00,
2013-10-24 22:04:00,35.3,33.5,30.25,NNE,22,4.0,6.0,93,0.00,,,0.00,0.00,VWS V14.01,2013-10-25 02:04:00,
2013-10-24 22:05:00,35.4,33.6,30.25,NNE,22,3.0,3.0,93,0.00,,,0.00,0.00,VWS V14.01,2013-10-25 02:05:00,
2013-10-24 22:06:00,35.4,33.6,30.25,NNE,22,2.0,3.0,93,0.00,,,0.00,0.00,VWS V14.01,2013-10-25 02:06:00,
2013-10-24 22:07:00,35.4,33.6,30.25,NNE,22,2.0,2.0,93,0.00,,,0.00,0.00,VWS V14.01,2013-10-25 02:07:00,
2013-10-24 22:08:00,35.4,33.6,30.25,NNE,22,0.0,2.0,93,0.00,,,0.00,0.00,VWS V14.01,2013-10-25 02:08:00,
2013-10-24 22:09:00,35.4,33.6,30.25,NNE,22,0.0,1.0,93,0.00,,,0.00,0.00,VWS V14.01,2013-10-25 02:09:00,
2013-10-24 22:10:00,35.4,33.6,30.25,NNE,22,1.0,2.0,93,0.00,,,0.00,0.00,VWS V14.01,2013-10-25 02:10:00,
2013-10-24 22:11:00,35.4,33.6,30.25,NNE,22,0.0,0.0,93,0.00,,,0.00,0.00,VWS V14.01,2013-10-25 02:11:00,
2013-10-24 22:12:00,35.4,33.6,30.25,NNE,22,0.0,0.0,93,0.00,,,0.00,0.00,VWS V14.01,2013-10-25 02:12:00,
2013-10-24 22:13:00,35.4,33.6,30.25,NNE,22,0.0,0.0,93,0.00,,,0.00,0.00,VWS V14.01,2013-10-25 02:13:00,
2013-10-24 22:14:00,35.4,33.6,30.25,NNE,22,0.0,0.0,93,0.00,,,0.00,0.00,VWS V14.01,2013-10-25 02:14:00,
2013-10-24 22:15:00,35.4,33.6,30.25,NNE,22,0.0,1.0,93,0.00,,,0.00,0.00,VWS V14.01,2013-10-25 02:15:00,
2013-10-24 22:16:00,35.4,33.6,30.25,NNE,22,3.0,4.0,93,0.00,,,0.00,0.00,VWS V14.01,2013-10-25 02:16:00,
2013-10-24 22:17:00,35.4,33.6,30.25,NNE,22,2.0,3.0,93,0.00,,,0.00,0.00,VWS V14.01,2013-10-25 02:17:00,
2013-10-24 22:18:00,35.3,33.5,30.25,NNE,22,1.0,3.0,93,0.00,,,0.00,0.00,VWS V14.01,2013-10-25 02:18:00,
2013-10-24 22:19:00,35.3,33.5,30.25,NNE,22,0.0,0.0,93,0.00,,,0.00,0.00,VWS V14.01,2013-10-25 02:19:00,
2013-10-24 22:20:00,35.3,33.5,30.25,NNE,22,1.0,2.0,93,0.00,,,0.00,0.00,VWS V14.01,2013-10-25 02:20:00,
2013-10-24 22:21:00,35.3,33.5,30.25,NNE,22,1.0,3.0,93,0.00,,,0.00,0.00,VWS V14.01,2013-10-25 02:21:00,
2013-10-24 22:22:00,35.3,33.5,30.25,NNE,22,0.0,1.0,93,0.00,,,0.00,0.00,VWS V14.01,2013-10-25 02:22:00,
2013-10-24 22:23:00,35.3,33.5,30.25,NNE,22,1.0,2.0,93,0.00,,,0.00,0.00,VWS V14.01,2013-10-25 02:23:00,
2013-10-24 22:24:00,35.3,33.5,30.25,NNE,22,0.0,2.0,93,0.00,,,0.00,0.00,VWS V14.01,2013-10-25 02:24:00,
2013-10-24 22:25:00,35.3,33.5,30.25,NNE,22,0.0,0.0,93,0.00,,,0.00,0.00,VWS V14.01,2013-10-25 02:25:00,
2013-10-24 22:26:00,35.3,33.5,30.25,NNE,22,0.0,0.0,93,0.00,,,0.00,0.00,VWS V14.01,2013-10-25 02:26:00,
2013-10-24 22:27:00,35.3,33.5,30.25,NNE,22,0.0,1.0,93,0.00,,,0.00,0.00,VWS V14.01,2013-10-25 02:27:00,
2013-10-24 22:28:00,35.3,33.5,30.25,NNE,22,0.0,1.0,93,0.00,,,0.00,0.00,VWS V14.01,2013-10-25 02:28:00,
2013-10-24 22:29:00,35.3,33.5,30.25,NNE,22,0.0,0.0,93,0.00,,,0.00,0.00,VWS V14.01,2013-10-25 02:29:00,
2013-10-24 22:30:00,35.3,33.5,30.26,NNE,22,0.0,0.0,93,0.00,,,0.00,0.00,VWS V14.01,2013-10-25 02:30:00,
2013-10-24 22:31:00,35.3,33.5,30.26,NNE,22,0.0,0.0,93,0.00,,,0.00,0.00,VWS V14.01,2013-10-25 02:31:00,
2013-10-24 22:32:00,35.3,33.5,30.26,NNE,22,0.0,1.0,93,0.00,,,0.00,0.00,VWS V14.01,2013-10-25 02:32:00,
2013-10-24 22:33:00,35.3,33.5,30.26,NNE,22,0.0,1.0,93,0.00,,,0.00,0.00,VWS V14.01,2013-10-25 02:33:00,
2013-10-24 22:34:00,35.2,33.4,30.26,NNE,22,1.0,2.0,93,0.00,,,0.00,0.00,VWS V14.01,2013-10-25 02:34:00,
2013-10-24 22:35:00,35.3,33.5,30.26,NNE,22,1.0,2.0,93,0.00,,,0.00,0.00,VWS V14.01,2013-10-25 02:35:00,
2013-10-24 22:36:00,35.3,33.5,30.26,NNE,22,0.0,0.0,93,0.00,,,0.00,0.00,VWS V14.01,2013-10-25 02:36:00,
2013-10-24 22:37:00,35.3,33.5,30.26,NNE,22,0.0,0.0,93,0.00,,,0.00,0.00,VWS V14.01,2013-10-25 02:37:00,
2013-10-24 22:38:00,35.3,33.5,30.26,NNE,22,0.0,0.0,93,0.00,,,0.00,0.00,VWS V14.01,2013-10-25 02:38:00,
2013-10-24 22:39:00,35.2,33.4,30.26,NNE,22,0.0,0.0,93,0.00,,,0.00,0.00,VWS V14.01,2013-10-25 02:39:00,
2013-10-24 22:40:00,35.3,33.5,30.26,NNE,22,0.0,1.0,93,0.00,,,0.00,0.00,VWS V14.01,2013-10-25 02:40:00,
2013-10-24 22:41:00,35.3,33.5,30.26,NNE,22,0.0,1.0,93,0.00,,,0.00,0.00,VWS V14.01,2013-10-25 02:41:00,
2013-10-24 22:42:00,35.3,33.5,30.26,NNE,22,1.0,1.0,93,0.00,,,0.00,0.00,VWS V14.01,2013-10-25 02:42:00,
2013-10-24 22:43:00,35.3,33.5,30.26,NNE,22,0.0,0.0,93,0.00,,,0.00,0.00,VWS V14.01,2013-10-25 02:43:00,
2013-10-24 22:44:00,35.3,33.8,30.26,NNE,22,0.0,0.0,94,0.00,,,0.00,0.00,VWS V14.01,2013-10-25 02:44:00,
2013-10-24 22:45:00,35.3,33.8,30.25,NNE,22,0.0,0.0,94,0.00,,,0.00,0.00,VWS V14.01,2013-10-25 02:45:00,
2013-10-24 22:46:00,35.3,33.8,30.26,NNE,22,0.0,0.0,94,0.00,,,0.00,0.00,VWS V14.01,2013-10-25 02:46:00,
2013-10-24 22:47:00,35.3,33.8,30.26,NNE,22,0.0,0.0,94,0.00,,,0.00,0.00,VWS V14.01,2013-10-25 02:47:00,
2013-10-24 22:48:00,35.3,33.8,30.26,NNE,22,0.0,0.0,94,0.00,,,0.00,0.00,VWS V14.01,2013-10-25 02:48:00,
2013-10-24 22:49:00,35.3,33.8,30.25,NNE,22,0.0,0.0,94,0.00,,,0.00,0.00,VWS V14.01,2013-10-25 02:49:00,
2013-10-24 22:50:00,35.3,33.8,30.26,NNE,22,0.0,0.0,94,0.00,,,0.00,0.00,VWS V14.01,2013-10-25 02:50:00,
2013-10-24 22:51:00,35.3,33.8,30.25,NNE,22,0.0,0.0,94,0.00,,,0.00,0.00,VWS V14.01,2013-10-25 02:51:00,
2013-10-24 22:52:00,35.3,33.8,30.25,NNE,22,0.0,0.0,94,0.00,,,0.00,0.00,VWS V14.01,2013-10-25 02:52:00,
2013-10-24 22:53:00,35.3,33.8,30.26,NNE,22,0.0,1.0,94,0.00,,,0.00,0.00,VWS V14.01,2013-10-25 02:53:00,
2013-10-24 22:54:00,35.3,33.8,30.26,NNE,22,1.0,2.0,94,0.00,,,0.00,0.00,VWS V14.01,2013-10-25 02:54:00,
2013-10-24 22:55:00,35.4,33.8,30.26,NNE,22,1.0,2.0,94,0.00,,,0.00,0.00,VWS V14.01,2013-10-25 02:55:00,
2013-10-24 22:56:00,35.3,33.8,30.25,NNE,22,0.0,1.0,94,0.00,,,0.00,0.00,VWS V14.01,2013-10-25 02:56:00,
2013-10-24 22:57:00,35.3,33.8,30.25,NNE,22,0.0,1.0,94,0.00,,,0.00,0.00,VWS V14.01,2013-10-25 02:57:00,
2013-10-24 22:58:00,35.3,33.8,30.25,NNE,22,0.0,1.0,94,0.00,,,0.00,0.00,VWS V14.01,2013-10-25 02:58:00,
2013-10-24 22:59:00,35.3,33.8,30.26,NNE,22,0.0,0.0,94,0.00,,,0.00,0.00,VWS V14.01,2013-10-25 02:59:00,
2013-10-24 23:00:00,35.3,33.8,30.26,NNE,22,0.0,1.0,94,0.00,,,0.00,0.00,VWS V14.01,2013-10-25 03:00:00,
2013-10-24 23:01:00,35.3,33.8,30.26,NNE,22,0.0,0.0,94,0.00,,,0.00,0.00,VWS V14.01,2013-10-25 03:01:00,
2013-10-24 23:02:00,35.3,33.8,30.26,NNE,22,0.0,0.0,94,0.00,,,0.00,0.00,VWS V14.01,2013-10-25 03:02:00,
2013-10-24 23:03:00,35.3,33.8,30.26,NNE,22,0.0,0.0,94,0.00,,,0.00,0.00,VWS V14.01,2013-10-25 03:03:00,
2013-10-24 23:04:00,35.3,33.8,30.26,NNE,22,0.0,1.0,94,0.00,,,0.00,0.00,VWS V14.01,2013-10-25 03:04:00,
2013-10-24 23:05:00,35.3,33.8,30.26,NNE,22,0.0,0.0,94,0.00,,,0.00,0.00,VWS V14.01,2013-10-25 03:05:00,
2013-10-24 23:06:00,35.3,33.8,30.26,NNE,22,0.0,0.0,94,0.00,,,0.00,0.00,VWS V14.01,2013-10-25 03:06:00,
2013-10-24 23:07:00,35.3,33.8,30.26,NNE,22,0.0,0.0,94,0.00,,,0.00,0.00,VWS V14.01,2013-10-25 03:07:00,
2013-10-24 23:08:00,35.3,33.8,30.26,NNE,22,0.0,0.0,94,0.00,,,0.00,0.00,VWS V14.01,2013-10-25 03:08:00,
2013-10-24 23:09:00,35.3,33.8,30.26,NNE,22,0.0,0.0,94,0.00,,,0.00,0.00,VWS V14.01,2013-10-25 03:09:00,
2013-10-24 23:10:00,35.2,33.7,30.26,NNE,22,0.0,0.0,94,0.00,,,0.00,0.00,VWS V14.01,2013-10-25 03:10:00,
2013-10-24 23:11:00,35.2,33.7,30.26,NNE,22,0.0,0.0,94,0.00,,,0.00,0.00,VWS V14.01,2013-10-25 03:11:00,
2013-10-24 23:12:00,35.2,33.7,30.26,NNE,22,0.0,0.0,94,0.00,,,0.00,0.00,VWS V14.01,2013-10-25 03:12:00,
2013-10-24 23:13:00,35.2,33.7,30.26,NNE,22,0.0,0.0,94,0.00,,,0.00,0.00,VWS V14.01,2013-10-25 03:13:00,
2013-10-24 23:14:00,35.2,33.7,30.26,NNE,22,0.0,1.0,94,0.00,,,0.00,0.00,VWS V14.01,2013-10-25 03:14:00,
2013-10-24 23:15:00,35.2,33.7,30.26,NNE,22,0.0,0.0,94,0.00,,,0.00,0.00,VWS V14.01,2013-10-25 03:15:00,
2013-10-24 23:16:00,35.2,33.7,30.26,NNE,22,0.0,0.0,94,0.00,,,0.00,0.00,VWS V14.01,2013-10-25 03:16:00,
2013-10-24 23:17:00,35.2,33.7,30.26,NNE,22,0.0,0.0,94,0.00,,,0.00,0.00,VWS V14.01,2013-10-25 03:17:00,
2013-10-24 23:18:00,35.2,33.7,30.26,NNE,22,0.0,0.0,94,0.00,,,0.00,0.00,VWS V14.01,2013-10-25 03:18:00,
2013-10-24 23:19:00,35.2,33.7,30.26,NNE,22,1.0,1.0,94,0.00,,,0.00,0.00,VWS V14.01,2013-10-25 03:19:00,
2013-10-24 23:20:00,35.1,33.5,30.26,NNE,22,1.0,2.0,94,0.00,,,0.00,0.00,VWS V14.01,2013-10-25 03:20:00,
2013-10-24 23:21:00,35.1,33.5,30.27,NNE,22,1.0,2.0,94,0.00,,,0.00,0.00,VWS V14.01,2013-10-25 03:21:00,
2013-10-24 23:22:00,35.2,33.7,30.26,NNE,22,1.0,2.0,94,0.00,,,0.00,0.00,VWS V14.01,2013-10-25 03:22:00,
2013-10-24 23:23:00,35.2,33.7,30.27,NNE,22,1.0,2.0,94,0.00,,,0.00,0.00,VWS V14.01,2013-10-25 03:23:00,
2013-10-24 23:24:00,35.2,33.7,30.27,NNE,22,2.0,4.0,94,0.00,,,0.00,0.00,VWS V14.01,2013-10-25 03:24:00,
2013-10-24 23:25:00,35.2,33.7,30.27,NW,315,3.0,4.0,94,0.00,,,0.00,0.00,VWS V14.01,2013-10-25 03:25:00,
2013-10-24 23:26:00,35.3,33.8,30.27,NW,315,3.0,4.0,94,0.00,,,0.00,0.00,VWS V14.01,2013-10-25 03:26:00,
2013-10-24 23:27:00,35.3,33.8,30.27,NW,315,3.0,4.0,94,0.00,,,0.00,0.00,VWS V14.01,2013-10-25 03:27:00,
2013-10-24 23:28:00,35.4,33.8,30.27,NW,315,3.0,6.0,94,0.00,,,0.00,0.00,VWS V14.01,2013-10-25 03:28:00,
2013-10-24 23:29:00,35.4,33.8,30.27,West,270,5.0,7.0,94,0.00,,,0.00,0.00,VWS V14.01,2013-10-25 03:29:00,
2013-10-24 23:30:00,35.3,33.8,30.27,West,270,5.0,6.0,94,0.00,,,0.00,0.00,VWS V14.01,2013-10-25 03:30:00,
2013-10-24 23:31:00,35.3,33.8,30.27,West,270,2.0,3.0,94,0.00,,,0.00,0.00,VWS V14.01,2013-10-25 03:31:00,
2013-10-24 23:32:00,35.3,33.8,30.27,West,270,2.0,3.0,94,0.00,,,0.00,0.00,VWS V14.01,2013-10-25 03:32:00,
2013-10-24 23:33:00,35.3,33.8,30.27,West,270,2.0,4.0,94,0.00,,,0.00,0.00,VWS V14.01,2013-10-25 03:33:00,
2013-10-24 23:34:00,35.3,33.8,30.27,WSW,248,2.0,3.0,94,0.00,,,0.00,0.00,VWS V14.01,2013-10-25 03:34:00,
2013-10-24 23:35:00,35.2,33.7,30.27,WSW,248,2.0,3.0,94,0.00,,,0.00,0.00,VWS V14.01,2013-10-25 03:35:00,
2013-10-24 23:36:00,35.2,33.7,30.27,West,270,2.0,3.0,94,0.00,,,0.00,0.00,VWS V14.01,2013-10-25 03:36:00,
2013-10-24 23:37:00,35.1,33.5,30.27,SW,225,2.0,5.0,94,0.00,,,0.00,0.00,VWS V14.01,2013-10-25 03:37:00,
2013-10-24 23:38:00,35.1,33.5,30.27,SW,225,1.0,3.0,94,0.00,,,0.00,0.00,VWS V14.01,2013-10-25 03:38:00,
2013-10-24 23:39:00,35.0,33.5,30.27,SW,225,2.0,3.0,94,0.00,,,0.00,0.00,VWS V14.01,2013-10-25 03:39:00,
2013-10-24 23:40:00,35.0,33.5,30.27,SW,225,2.0,4.0,94,0.00,,,0.00,0.00,VWS V14.01,2013-10-25 03:40:00,
2013-10-24 23:41:00,34.9,33.3,30.27,SW,225,4.0,6.0,94,0.00,,,0.00,0.00,VWS V14.01,2013-10-25 03:41:00,
2013-10-24 23:42:00,34.8,33.2,30.27,WSW,248,5.0,7.0,94,0.00,,,0.00,0.00,VWS V14.01,2013-10-25 03:42:00,
2013-10-24 23:43:00,34.8,33.2,30.27,West,270,5.0,7.0,94,0.00,,,0.00,0.00,VWS V14.01,2013-10-25 03:43:00,
2013-10-24 23:44:00,34.7,33.2,30.27,West,270,3.0,5.0,94,0.00,,,0.00,0.00,VWS V14.01,2013-10-25 03:44:00,
2013-10-24 23:45:00,34.6,33.0,30.27,WSW,248,2.0,5.0,94,0.00,,,0.00,0.00,VWS V14.01,2013-10-25 03:45:00,
2013-10-24 23:46:00,34.6,33.0,30.27,WSW,248,1.0,2.0,94,0.00,,,0.00,0.00,VWS V14.01,2013-10-25 03:46:00,
2013-10-24 23:47:00,34.6,33.0,30.27,WSW,248,2.0,3.0,94,0.00,,,0.00,0.00,VWS V14.01,2013-10-25 03:47:00,
2013-10-24 23:48:00,34.5,33.0,30.27,WSW,248,2.0,5.0,94,0.00,,,0.00,0.00,VWS V14.01,2013-10-25 03:48:00,
2013-10-24 23:49:00,34.5,33.0,30.27,WNW,292,3.0,4.0,94,0.00,,,0.00,0.00,VWS V14.01,2013-10-25 03:49:00,
2013-10-24 23:50:00,34.4,32.9,30.27,WNW,292,1.0,3.0,94,0.00,,,0.00,0.00,VWS V14.01,2013-10-25 03:50:00,
2013-10-24 23:51:00,34.4,32.9,30.27,WNW,292,1.0,3.0,94,0.00,,,0.00,0.00,VWS V14.01,2013-10-25 03:51:00,
2013-10-24 23:52:00,34.4,32.9,30.27,WNW,292,3.0,4.0,94,0.00,,,0.00,0.00,VWS V14.01,2013-10-25 03:52:00,
2013-10-24 23:53:00,34.4,32.9,30.27,WNW,292,1.0,2.0,94,0.00,,,0.00,0.00,VWS V14.01,2013-10-25 03:53:00,
2013-10-24 23:54:00,34.3,32.8,30.27,WNW,292,1.0,2.0,94,0.00,,,0.00,0.00,VWS V14.01,2013-10-25 03:54:00,
2013-10-24 23:55:00,34.3,32.8,30.27,WNW,292,1.0,3.0,94,0.00,,,0.00,0.00,VWS V14.01,2013-10-25 03:55:00,
2013-10-24 23:56:00,34.3,32.8,30.27,WNW,292,1.0,2.0,94,0.00,,,0.00,0.00,VWS V14.01,2013-10-25 03:56:00,
2013-10-24 23:57:00,34.4,32.9,30.27,WNW,292,4.0,5.0,94,0.00,,,0.00,0.00,VWS V14.01,2013-10-25 03:57:00,
2013-10-24 23:58:00,34.3,32.8,30.27,WNW,292,2.0,4.0,94,0.00,,,0.00,0.00,VWS V14.01,2013-10-25 03:58:00,
2013-10-24 23:59:00,34.4,32.9,30.27,WNW,292,2.0,3.0,94,0.00,,,0.00,0.00,VWS V14.01,2013-10-25 03:59:00,